User: anonymous   Login
Location: Unspecified
(0.0000°N, 0.0000°E)
Time: 00:13:37
(UTC+00:00)
Language:

SBIRS GEO 1 (USA 230) - Orbit

View from above orbital plane
View from above orbital plane
View from above satellite
View from above satellite

Ground track
Ground track

The orbit data is extracted from the following two-line orbital elements,

1 37481U 11019A   19109.16743067 -.00000032  00000-0  00000+0 0  9994
2 37481   2.5985 330.4548 0002530  59.4189 303.5740  1.00272478 29113
Epoch (UTC): 19 April 2019 04:01:06
Eccentricity: 0.0002530
inclination: 2.5985°
perigee height: 35775 km
apogee height: 35796 km
right ascension of ascending node: 330.4548°
argument of perigee: 59.4189°
revolutions per day: 1.00272478
mean anomaly at epoch: 303.5740°
orbit number at epoch: 2911

The dashed part of the orbit path shows where the satellite is in the earth's shadow,  

DLR